VK5FR Weather Reports


Display with metric or nautical units.
time (UTC)temp
F
wind
direction
speed
MPH
gust
MPH
rain 1hr
in
rain 24hr
in
rain mn
in
humidity
%
barometer
mb
20260508204945 55 98 3.0 5.0 0.00 0.00 0.00 90 1027.4
20260508204442 55 102 4.0 6.0 0.00 0.00 0.00 90 1027.5
20260508203937 55 100 3.0 5.0 0.00 0.00 0.00 90 1027.3
20260508203434 55 117 3.0 5.0 0.00 0.00 0.00 90 1027.2
20260508202930 55 135 3.0 5.0 0.00 0.00 0.00 90 1027.3
20260508202427 55 141 3.0 3.0 0.00 0.00 0.00 90 1027.2
20260508201924 55 126 4.0 5.0 0.00 0.00 0.00 90 1027.1
20260508201421 55 141 3.0 6.0 0.00 0.00 0.00 90 1027.2
20260508200918 55 138 3.0 5.0 0.00 0.00 0.00 90 1027.2
20260508200415 55 142 3.0 5.0 0.00 0.00 0.00 90 1027.2
20260508195910 55 127 4.0 5.0 0.00 0.00 0.00 90 1027.1
20260508195407 55 137 4.0 5.0 0.00 0.00 0.00 90 1027.0
20260508194903 55 109 3.0 5.0 0.00 0.00 0.00 90 1027.1
20260508194400 55 126 3.0 3.0 0.00 0.00 0.00 90 1027.1
20260508193857 55 139 2.0 3.0 0.00 0.00 0.00 90 1027.1
20260508193354 55 131 2.0 3.0 0.00 0.00 0.00 90 1027.1
20260508192850 55 129 2.0 2.0 0.00 0.00 0.00 90 1026.9
20260508192347 55 148 0.0 2.0 0.00 0.00 0.00 90 1026.9
20260508191845 55 139 1.0 2.0 0.00 0.00 0.00 90 1026.9
20260508191342 55 127 1.0 2.0 0.00 0.00 0.00 90 1026.8
20260508190839 55 119 1.0 3.0 0.00 0.00 0.00 90 1026.8
20260508190335 55 98 2.0 3.0 0.00 0.00 0.00 90 1026.9
20260508185831 55 115 2.0 2.0 0.00 0.00 0.00 90 1026.9
20260508185329 55 42 1.0 2.0 0.00 0.00 0.00 91 1026.9
20260508184826 54 312 0.0 1.0 0.00 0.00 0.00 90 1027.0
20260508184323 54 321 0.0 0.0 0.00 0.00 0.00 90 1027.0
20260508183820 55 27 0.0 2.0 0.00 0.00 0.00 90 1026.9
20260508183317 55 74 3.0 3.0 0.00 0.00 0.00 90 1026.7
20260508182812 55 74 3.0 5.0 0.00 0.00 0.00 90 1026.8
20260508182309 55 129 3.0 3.0 0.00 0.00 0.00 90 1026.9
20260508181759 55 123 3.0 5.0 0.00 0.00 0.00 90 1026.8
20260508181256 55 119 3.0 3.0 0.00 0.00 0.00 90 1026.9
20260508180754 55 141 4.0 7.0 0.00 0.00 0.00 90 1027.0
20260508180250 55 136 4.0 6.0 0.00 0.00 0.00 90 1026.9
20260508175747 55 131 4.0 6.0 0.00 0.00 0.00 90 1026.9
20260508175243 55 110 4.0 6.0 0.00 0.00 0.00 90 1027.1
20260508174741 55 147 3.0 5.0 0.00 0.00 0.00 90 1027.1
20260508174239 55 139 5.0 7.0 0.00 0.00 0.00 90 1027.2
20260508173735 55 139 4.0 6.0 0.00 0.00 0.00 90 1027.3
20260508173231 55 118 4.0 6.0 0.00 0.00 0.00 90 1027.3
20260508172727 55 129 5.0 5.0 0.00 0.00 0.00 90 1027.3
20260508172225 55 127 4.0 6.0 0.00 0.00 0.00 91 1027.3
20260508171721 55 133 4.0 6.0 0.00 0.00 0.00 91 1027.3
20260508171217 55 122 5.0 6.0 0.00 0.00 0.00 91 1027.1
20260508170714 55 85 3.0 6.0 0.00 0.00 0.00 91 1027.4
20260508170212 55 125 4.0 7.0 0.00 0.00 0.00 91 1027.4
20260508165709 55 116 3.0 6.0 0.00 0.00 0.00 91 1027.3
20260508165206 55 137 6.0 7.0 0.00 0.00 0.00 91 1026.9
20260508164703 55 131 5.0 6.0 0.00 0.00 0.00 91 1027.1
20260508164159 55 125 4.0 6.0 0.00 0.00 0.00 91 1027.2
20260508163657 55 107 4.0 6.0 0.00 0.00 0.00 91 1027.2
20260508163154 55 121 5.0 5.0 0.00 0.00 0.00 91 1027.3
20260508162649 55 122 4.0 6.0 0.00 0.00 0.00 91 1027.1
20260508162147 55 136 4.0 7.0 0.00 0.00 0.00 91 1027.1
20260508161644 55 136 5.0 8.0 0.00 0.00 0.00 91 1027.1
20260508161142 55 117 5.0 7.0 0.00 0.00 0.00 91 1027.3
20260508160639 55 94 2.0 6.0 0.00 0.00 0.00 91 1027.4
20260508160137 54 89 3.0 5.0 0.00 0.00 0.00 91 1027.6
20260508155634 54 135 3.0 5.0 0.00 0.00 0.00 91 1027.2
20260508155131 54 133 3.0 3.0 0.00 0.00 0.00 91 1027.4
20260508154628 54 96 3.0 3.0 0.00 0.00 0.00 91 1027.3
20260508154124 54 131 2.0 5.0 0.00 0.00 0.00 91 1027.3
20260508153621 54 229 1.0 2.0 0.00 0.00 0.00 91 1027.4
20260508153118 54 186 1.0 3.0 0.00 0.00 0.00 91 1027.4
20260508152615 54 104 1.0 2.0 0.00 0.00 0.00 91 1027.6
20260508152110 54 137 2.0 6.0 0.00 0.00 0.00 91 1027.4
20260508151607 54 174 4.0 5.0 0.00 0.00 0.00 91 1027.5
20260508151104 54 132 4.0 5.0 0.00 0.00 0.00 91 1027.4
20260508150601 54 162 3.0 5.0 0.00 0.00 0.00 91 1027.8
20260508150057 54 129 1.0 2.0 0.00 0.00 0.00 90 1027.5
20260508145554 54 125 2.0 3.0 0.00 0.00 0.00 90 1027.5
20260508145050 54 65 1.0 3.0 0.00 0.00 0.00 90 1027.6
20260508144548 54 106 1.0 3.0 0.00 0.00 0.00 90 1027.6
20260508144045 54 130 2.0 5.0 0.00 0.00 0.00 90 1027.6
20260508143542 55 186 1.0 2.0 0.00 0.00 0.00 90 1027.8
20260508143039 55 170 2.0 5.0 0.00 0.01 0.01 90 1027.5
20260508142536 55 139 2.0 5.0 0.00 0.01 0.01 90 1027.7
20260508142032 55 111 3.0 3.0 0.00 0.01 0.01 90 1027.8
20260508141529 55 131 3.0 5.0 0.00 0.01 0.01 89 1027.6
20260508141027 55 163 3.0 5.0 0.00 0.01 0.01 89 1027.6
20260508140524 55 135 3.0 5.0 0.00 0.01 0.01 89 1027.6
20260508140020 55 140 3.0 6.0 0.00 0.01 0.01 89 1027.6
20260508135516 55 173 4.0 6.0 0.00 0.01 0.01 89 1027.7
20260508135012 55 172 3.0 6.0 0.00 0.01 0.01 89 1027.7
20260508134509 55 159 4.0 6.0 0.00 0.01 0.01 89 1027.9
20260508134006 55 110 5.0 7.0 0.00 0.01 0.01 89 1027.8
20260508133503 55 143 4.0 6.0 0.00 0.01 0.01 89 1028.2
20260508133000 55 127 4.0 6.0 0.00 0.01 0.01 89 1028.1
20260508132458 55 158 3.0 5.0 0.00 0.01 0.01 89 1028.4
20260508131954 55 147 2.0 5.0 0.00 0.01 0.01 88 1028.3
20260508131450 55 204 1.0 3.0 0.00 0.01 0.01 88 1028.2
20260508130946 55 163 3.0 3.0 0.00 0.01 0.01 88 1028.2
20260508130444 56 171 2.0 3.0 0.00 0.01 0.01 88 1028.3
20260508125939 56 140 3.0 3.0 0.00 0.01 0.01 88 1028.3
20260508125436 56 164 2.0 6.0 0.00 0.01 0.01 87 1028.4
20260508124934 56 159 4.0 5.0 0.00 0.01 0.01 87 1028.3
20260508124431 56 202 2.0 3.0 0.00 0.01 0.01 87 1028.2
20260508123928 56 216 2.0 5.0 0.00 0.01 0.01 87 1028.3
20260508123427 57 144 5.0 6.0 0.00 0.01 0.01 86 1028.5
20260508122923 57 159 4.0 6.0 0.00 0.01 0.01 86 1028.5
20260508122420 57 165 4.0 8.0 0.00 0.01 0.01 86 1028.5
20260508121917 56 172 5.0 7.0 0.00 0.01 0.01 86 1028.4
20260508121416 57 188 4.0 6.0 0.00 0.01 0.01 85 1028.4
20260508120913 57 169 5.0 6.0 0.00 0.01 0.01 85 1028.3
20260508120411 57 179 5.0 7.0 0.00 0.01 0.01 85 1028.4
20260508115908 57 205 3.0 8.0 0.00 0.01 0.01 85 1028.3
20260508115406 57 196 6.0 9.0 0.00 0.01 0.01 84 1028.3
20260508114902 57 167 3.0 7.0 0.00 0.01 0.01 84 1028.5
20260508114359 57 166 3.0 6.0 0.00 0.01 0.01 84 1028.6
20260508113855 57 168 3.0 7.0 0.00 0.01 0.01 83 1028.2
20260508113353 57 174 3.0 5.0 0.00 0.01 0.01 83 1028.4
20260508112850 57 176 5.0 6.0 0.00 0.01 0.01 83 1028.4
20260508112347 57 154 3.0 6.0 0.00 0.01 0.01 83 1028.4
20260508111843 57 183 5.0 7.0 0.00 0.01 0.01 83 1028.2
20260508111340 57 198 1.0 3.0 0.00 0.01 0.01 83 1028.2
20260508110838 57 162 6.0 8.0 0.00 0.01 0.01 83 1028.3
20260508110335 57 179 5.0 8.0 0.00 0.01 0.01 83 1028.3
20260508105835 57 211 4.0 8.0 0.00 0.01 0.01 83 1028.3
20260508105332 57 173 4.0 6.0 0.00 0.01 0.01 83 1028.2
20260508104829 57 192 4.0 7.0 0.00 0.01 0.01 82 1028.3
20260508104325 57 185 5.0 7.0 0.00 0.01 0.01 82 1028.2
20260508103823 57 184 2.0 6.0 0.00 0.01 0.01 82 1028.3
20260508103320 57 189 4.0 6.0 0.00 0.01 0.01 82 1028.3
20260508102817 58 170 3.0 7.0 0.00 0.01 0.01 82 1028.2
20260508102315 58 178 6.0 6.0 0.00 0.01 0.01 82 1028.2
20260508101812 58 183 4.0 6.0 0.00 0.01 0.01 81 1028.4
20260508101310 58 192 4.0 5.0 0.00 0.01 0.01 81 1028.4
20260508100807 58 174 5.0 6.0 0.00 0.01 0.01 81 1028.3
20260508100306 58 202 3.0 6.0 0.00 0.01 0.01 81 1028.4
20260508095801 58 183 4.0 7.0 0.00 0.01 0.01 80 1028.2
20260508095259 59 154 6.0 7.0 0.00 0.01 0.01 80 1028.2
20260508094755 59 183 3.0 6.0 0.00 0.01 0.01 80 1028.3
20260508094252 59 211 4.0 8.0 0.00 0.01 0.01 79 1028.3
20260508093749 59 212 2.0 5.0 0.00 0.01 0.01 79 1028.1
20260508093247 59 196 4.0 8.0 0.00 0.01 0.01 79 1028.2
20260508092744 59 218 5.0 7.0 0.00 0.01 0.01 79 1027.9
20260508092242 59 194 7.0 9.0 0.00 0.01 0.01 79 1028.1
20260508091740 59 225 7.0 9.0 0.00 0.01 0.01 78 1028.0
20260508091236 59 197 4.0 7.0 0.00 0.01 0.01 78 1028.0
20260508090734 59 182 5.0 7.0 0.00 0.01 0.01 77 1028.0
20260508090232 59 163 7.0 7.0 0.00 0.01 0.01 77 1027.9
20260508085727 59 190 6.0 9.0 0.00 0.01 0.01 76 1027.8
20260508085225 59 165 7.0 10.0 0.00 0.01 0.01 76 1027.7
20260508084720 60 171 8.0 9.0 0.00 0.01 0.01 75 1027.8
20260508084218 60 176 6.0 10.0 0.00 0.01 0.01 75 1027.9
20260508083716 60 189 6.0 14.0 0.00 0.01 0.01 75 1027.8
20260508083213 60 188 5.0 11.0 0.00 0.01 0.01 76 1027.7
20260508082708 60 194 5.0 7.0 0.00 0.01 0.01 77 1027.7
20260508082206 60 215 7.0 9.0 0.00 0.01 0.01 77 1027.7
20260508081703 60 197 5.0 9.0 0.00 0.01 0.01 78 1027.6
20260508081159 60 204 4.0 7.0 0.00 0.01 0.01 79 1027.8
20260508080657 60 167 5.0 7.0 0.00 0.01 0.01 79 1027.7
20260508080155 60 193 6.0 8.0 0.00 0.01 0.01 79 1027.5
20260508075651 60 201 8.0 10.0 0.00 0.01 0.01 79 1027.4
20260508075148 60 185 6.0 8.0 0.00 0.01 0.01 79 1027.5
20260508074646 60 202 6.0 8.0 0.00 0.01 0.01 79 1027.3
20260508074143 60 204 5.0 9.0 0.00 0.01 0.01 79 1027.4
20260508073640 60 216 7.0 9.0 0.00 0.01 0.01 79 1027.4
20260508073138 60 234 5.0 7.0 0.00 0.01 0.01 80 1027.3
20260508072633 60 220 7.0 11.0 0.00 0.01 0.01 80 1027.3
20260508072130 60 199 7.0 11.0 0.00 0.01 0.01 81 1027.3
20260508071628 60 227 12.0 14.0 0.00 0.01 0.01 81 1027.4
20260508071126 61 208 9.0 13.0 0.00 0.01 0.01 80 1027.4
20260508070623 61 229 9.0 16.0 0.00 0.01 0.01 79 1027.2
20260508070122 61 211 12.0 14.0 0.00 0.01 0.01 79 1027.4
20260508065618 61 224 7.0 14.0 0.00 0.01 0.01 79 1027.5
20260508065116 62 219 11.0 16.0 0.00 0.01 0.01 78 1027.5
20260508064614 62 240 13.0 16.0 0.00 0.01 0.01 78 1027.6
20260508064112 62 242 10.0 14.0 0.00 0.01 0.01 77 1027.2
20260508063609 62 224 9.0 15.0 0.00 0.01 0.01 77 1027.4
20260508063107 62 246 11.0 16.0 0.00 0.01 0.01 77 1027.4
20260508062604 62 229 10.0 11.0 0.00 0.01 0.01 78 1027.3
20260508062100 61 219 12.0 14.0 0.00 0.01 0.01 80 1027.4
20260508061558 61 272 9.0 11.0 0.00 0.01 0.01 82 1027.4
20260508061055 61 267 4.0 11.0 0.00 0.01 0.01 82 1027.4
20260508060552 61 258 5.0 9.0 0.00 0.01 0.01 82 1027.2
20260508060049 61 230 9.0 10.0 0.00 0.01 0.01 81 1027.3
20260508055545 60 231 8.0 14.0 0.00 0.01 0.01 80 1027.2
20260508055042 60 213 5.0 10.0 0.00 0.01 0.01 82 1027.4
20260508054538 59 245 4.0 9.0 0.00 0.01 0.01 84 1027.3
20260508054035 60 219 9.0 10.0 0.00 0.01 0.01 84 1027.6
20260508053532 60 219 9.0 14.0 0.00 0.01 0.01 84 1027.5
20260508053031 61 210 9.0 14.0 0.00 0.01 0.01 84 1027.4
20260508052528 60 241 14.0 17.0 0.00 0.01 0.01 84 1027.4
20260508052024 61 259 16.0 18.0 0.00 0.01 0.01 82 1027.5
20260508051521 61 194 6.0 8.0 0.00 0.01 0.01 79 1027.4
20260508051016 61 229 6.0 9.0 0.00 0.01 0.01 79 1027.4
20260508050513 60 225 10.0 15.0 0.00 0.01 0.01 79 1027.5
20260508050010 60 234 10.0 13.0 0.00 0.01 0.01 80 1027.6
20260508045506 60 237 7.0 11.0 0.00 0.01 0.01 81 1027.5
20260508045004 60 250 12.0 17.0 0.00 0.01 0.01 82 1027.7
20260508044501 61 225 16.0 17.0 0.00 0.01 0.01 82 1027.7
20260508043956 61 226 7.0 16.0 0.00 0.01 0.01 82 1027.4
20260508043453 62 231 13.0 15.0 0.00 0.01 0.01 80 1027.5
20260508042949 61 235 13.0 16.0 0.00 0.01 0.01 80 1027.5
20260508042448 62 251 13.0 17.0 0.00 0.01 0.01 79 1027.8
20260508041944 62 251 9.0 14.0 0.00 0.01 0.01 77 1027.5
20260508041441 62 235 11.0 15.0 0.00 0.01 0.01 76 1027.6
20260508040937 62 221 10.0 17.0 0.00 0.01 0.01 76 1027.7
20260508040435 62 253 11.0 16.0 0.00 0.01 0.01 75 1027.6
20260508035932 63 227 13.0 16.0 0.00 0.01 0.01 74 1027.8
20260508035429 62 243 12.0 16.0 0.00 0.01 0.01 74 1027.7
20260508034926 63 216 9.0 16.0 0.00 0.01 0.01 73 1027.7
20260508034423 63 231 11.0 15.0 0.00 0.01 0.01 73 1027.8
20260508033919 62 195 8.0 14.0 0.00 0.01 0.01 75 1027.6
20260508033418 62 249 5.0 13.0 0.00 0.01 0.01 77 1027.8
20260508032915 62 208 6.0 9.0 0.00 0.01 0.01 78 1027.9
20260508032413 61 198 8.0 10.0 0.00 0.01 0.01 78 1027.9
20260508031909 62 177 10.0 16.0 0.00 0.01 0.01 78 1028.0
20260508031407 62 200 9.0 11.0 0.00 0.01 0.01 78 1028.1
20260508030902 60 232 10.0 11.0 0.00 0.01 0.01 79 1028.2
20260508030359 60 239 9.0 15.0 0.00 0.01 0.01 81 1028.3
20260508025856 59 224 12.0 17.0 0.00 0.01 0.01 85 1028.3
20260508025353 59 234 8.0 11.0 0.00 0.01 0.01 88 1028.4
20260508024850 59 198 8.0 16.0 0.00 0.01 0.01 88 1028.3
20260508024347 59 242 11.0 16.0 0.00 0.01 0.01 87 1028.4
20260508023844 59 234 13.0 16.0 0.00 0.01 0.01 85 1028.3
20260508023341 59 226 7.0 13.0 0.00 0.01 0.01 86 1028.4
20260508022837 60 189 12.0 14.0 0.00 0.01 0.01 85 1028.3
20260508022332 60 202 8.0 14.0 0.00 0.01 0.01 85 1028.4
20260508021830 60 236 13.0 18.0 0.00 0.01 0.01 86 1028.4
20260508021326 60 252 13.0 15.0 0.00 0.01 0.01 86 1028.8
20260508020822 60 235 13.0 15.0 0.00 0.01 0.01 86 1028.7
20260508020320 59 246 7.0 13.0 0.00 0.01 0.01 88 1028.5
20260508015817 59 242 15.0 17.0 0.00 0.01 0.01 88 1028.7
20260508015314 58 246 11.0 17.0 0.00 0.01 0.01 88 1028.9
20260508014811 59 261 11.0 15.0 0.00 0.01 0.01 88 1028.9
20260508014308 59 242 8.0 17.0 0.00 0.01 0.01 90 1028.8
20260508013803 58 239 12.0 15.0 0.00 0.01 0.01 90 1029.0
20260508013300 59 234 10.0 14.0 0.00 0.01 0.01 90 1029.0
20260508012757 58 235 8.0 10.0 0.00 0.01 0.01 90 1029.1
20260508012255 58 208 10.0 13.0 0.00 0.01 0.01 90 1029.1
20260508011752 59 247 11.0 14.0 0.00 0.01 0.01 90 1029.3
20260508011249 58 218 9.0 15.0 0.00 0.01 0.01 90 1029.1
20260508010746 58 242 9.0 10.0 0.05 0.01 0.01 90 1029.2
20260508010245 58 248 7.0 13.0 0.05 0.01 0.01 90 1029.2
20260508005741 58 219 13.0 18.0 0.00 0.00 0.00 89 1029.1
20260508005238 58 230 7.0 13.0 0.00 0.00 0.00 89 1029.1
20260508004733 58 235 6.0 9.0 0.00 0.00 0.00 89 1029.1
20260508004230 59 216 11.0 16.0 0.00 0.00 0.00 88 1029.1
20260508003727 59 205 7.0 10.0 0.00 0.00 0.00 88 1029.2
20260508003224 58 240 8.0 10.0 0.00 0.00 0.00 89 1029.0
20260508002721 58 219 6.0 10.0 0.00 0.00 0.00 89 1029.0
20260508002218 58 247 6.0 11.0 0.00 0.00 0.00 88 1028.9
20260508001714 58 219 9.0 11.0 0.00 0.00 0.00 88 1028.8
20260508001209 58 258 5.0 10.0 0.00 0.00 0.00 87 1029.2
20260508000706 58 235 10.0 16.0 0.00 0.00 0.00 86 1028.9
20260508000204 57 220 6.0 9.0 0.00 0.00 0.00 86 1028.9
20260507235659 57 223 9.0 15.0 0.00 0.00 0.00 86 1029.0
20260507235157 58 210 5.0 11.0 0.00 0.00 0.00 87 1028.8
20260507234654 58 201 6.0 8.0 0.00 0.00 0.00 87 1028.9
20260507234150 57 171 4.0 8.0 0.00 0.00 0.00 87 1029.0
20260507233647 58 184 4.0 10.0 0.00 0.00 0.00 86 1029.0
20260507233145 58 228 7.0 11.0 0.00 0.00 0.00 85 1028.7
20260507232641 58 186 6.0 8.0 0.00 0.00 0.00 83 1028.9
20260507232133 58 212 8.0 10.0 0.00 0.00 0.00 82 1028.8
20260507231629 58 197 5.0 11.0 0.00 0.00 0.00 80 1028.8
20260507231127 58 203 7.0 10.0 0.00 0.00 0.00 79 1028.8
20260507230623 58 234 7.0 9.0 0.00 0.00 0.00 78 1028.8
20260507230121 59 238 9.0 13.0 0.00 0.00 0.00 78 1028.7
20260507225615 59 206 8.0 9.0 0.00 0.00 0.00 77 1028.7
20260507225112 59 241 11.0 13.0 0.00 0.00 0.00 77 1028.6
20260507224607 59 219 7.0 11.0 0.00 0.00 0.00 77 1028.5
20260507224104 59 236 11.0 17.0 0.00 0.00 0.00 77 1028.7
20260507223600 59 217 13.0 18.0 0.00 0.00 0.00 77 1028.6
20260507223057 59 206 8.0 11.0 0.00 0.00 0.00 77 1028.6
20260507222554 59 242 8.0 15.0 0.00 0.00 0.00 77 1028.4
20260507222050 59 236 13.0 16.0 0.00 0.00 0.00 77 1028.4
20260507221547 59 234 8.0 13.0 0.00 0.00 0.00 76 1028.2
20260507221044 59 223 8.0 9.0 0.00 0.00 0.00 76 1028.3
20260507220541 59 217 10.0 16.0 0.00 0.00 0.00 76 1028.2
20260507220039 59 221 7.0 10.0 0.00 0.00 0.00 76 1028.0
20260507215535 59 241 8.0 11.0 0.00 0.00 0.00 75 1028.0
20260507215033 59 231 10.0 15.0 0.00 0.00 0.00 76 1027.7
20260507214530 59 220 6.0 11.0 0.00 0.00 0.00 76 1027.9
20260507214026 59 223 8.0 9.0 0.00 0.00 0.00 76 1027.8
20260507213522 59 190 5.0 13.0 0.00 0.00 0.00 76 1027.6
20260507213019 59 239 5.0 10.0 0.00 0.00 0.00 76 1027.6
20260507212515 59 242 12.0 15.0 0.00 0.00 0.00 76 1027.5
20260507212012 59 227 12.0 15.0 0.00 0.00 0.00 74 1027.4
20260507211509 59 222 9.0 14.0 0.00 0.00 0.00 74 1027.5
20260507211005 59 223 8.0 10.0 0.00 0.00 0.00 75 1027.6
20260507210502 59 242 7.0 11.0 0.00 0.00 0.00 74 1027.5
20260507205959 59 249 12.0 14.0 0.00 0.00 0.00 74 1027.6
20260507205456 59 230 7.0 13.0 0.00 0.00 0.00 73 1027.4